Carroll, IA

5:25 PM CST on January 20, 2018 (GMT -0600)
Neu

Weather History for KCIN - March, 2013

Change the Weather History Date:

Friday, March 1, 2013

  Actual Average Record
Temperature  
Mean Temperature 24 °F -  
Max Temperature 26 °F 42 °F 73 °F (1992)
Min Temperature 21 °F 20 °F -28 °F (1962)
Degree Days  
Heating Degree Days 40    
Moisture  
Dew Point 20 °F    
Average Humidity 83    
Maximum Humidity 100    
Minimum Humidity 69    
Precipitation  
Precipitation 0.00 in - - ()
Sea Level Pressure  
Sea Level Pressure 30.25 in    
Wind  
Wind Speed 12 mph (North)    
Max Wind Speed 16 mph    
Max Gust Speed 20 mph    
Visibility 8 miles    
Events Rain , Snow    
Averages and records for this station are not official NWS values.
T = Trace of Precipitation, MM = Missing Value Source: NWS Daily Summary

Daily Weather History Graph

Daily Weather History Graph

Search for Another Location

Airport or City:

Trip Planner

Search our weather history database for the weather conditions in past years. The results will help you decide how hot, cold, wet, or windy it might be!

Date:

Astronomy

Mar. 01, 2013 Rise Set
Actual Time 6:53 AM CST 6:09 PM CST
Civil Twilight 6:25 AM CST 6:37 PM CST
Nautical Twilight 5:53 AM CST 7:10 PM CST
Astronomical Twilight 5:21 AM CST 7:42 PM CST
Moon 10:49 PM CST (3/1) 8:36 AM CST (3/1)
Length of Visible Light 12h 11m
Length of Day
11h 15m
Waning Gibbous, 83% of the Moon is Illuminated
Mar 1
Waning Gibbous
Mar 4
Last Quarter
Mar 11
New
Mar 19
First Quarter
Mar 27
Full

Hourly Weather History & Observations

Time (CST) Temp. Windchill Dew Point Humidity Pressure Visibility Wind Dir Wind Speed Gust Speed Precip Events Conditions
12:15 AM 26.6 °F 16.2 °F 23.0 °F 86% 30.17 in 10.0 mi NNW 11.5 mph - N/A   Overcast
12:35 AM 24.8 °F 14.6 °F 23.0 °F 93% 30.17 in 10.0 mi NNW 10.4 mph - N/A   Overcast
1:15 AM 24.8 °F 14.6 °F 23.0 °F 93% 30.17 in 10.0 mi NNW 10.4 mph - N/A   Overcast
1:35 AM 24.8 °F 12.9 °F 23.0 °F 93% 30.17 in 10.0 mi NNW 13.8 mph - N/A   Overcast
1:55 AM 24.8 °F 14.0 °F 23.0 °F 93% 30.18 in 10.0 mi NNW 11.5 mph - N/A Rain Light Freezing Rain
2:15 AM 24.8 °F 13.4 °F 23.0 °F 93% 30.18 in 10.0 mi NNW 12.7 mph - N/A   Overcast
2:35 AM 24.8 °F 14.6 °F 23.0 °F 93% 30.17 in 9.0 mi NNW 10.4 mph - N/A Rain Light Freezing Rain
2:55 AM 24.8 °F 14.6 °F 23.0 °F 93% 30.17 in 9.0 mi NNW 10.4 mph - N/A   Overcast
3:35 AM 24.8 °F 13.4 °F 23.0 °F 93% 30.17 in 9.0 mi NNW 12.7 mph - N/A Rain Light Freezing Rain
3:55 AM 24.8 °F 13.4 °F 23.0 °F 93% 30.17 in 8.0 mi NNW 12.7 mph - N/A Rain Light Freezing Rain
4:15 AM 24.8 °F 13.4 °F 23.0 °F 93% 30.17 in 7.0 mi NNW 12.7 mph - N/A   Overcast
4:35 AM 24.8 °F 14.0 °F 23.0 °F 93% 30.18 in 6.0 mi NNW 11.5 mph - N/A Snow Light Snow
4:55 AM 24.8 °F 14.0 °F 23.0 °F 93% 30.18 in 6.0 mi NNW 11.5 mph - N/A Snow Light Snow
5:15 AM 24.8 °F 13.4 °F 23.0 °F 93% 30.19 in 10.0 mi NNW 12.7 mph - N/A   Overcast
5:35 AM 24.8 °F 13.4 °F 23.0 °F 93% 30.19 in 10.0 mi North 12.7 mph - N/A   Overcast
5:55 AM 24.8 °F 14.6 °F 23.0 °F 93% 30.19 in 4.0 mi North 10.4 mph - N/A Snow Light Snow
6:15 AM 23.0 °F 11.7 °F 23.0 °F 100% 30.20 in 3.0 mi NNW 11.5 mph - N/A Snow Light Snow
6:35 AM 23.0 °F 11.7 °F 23.0 °F 100% 30.20 in 4.0 mi NNW 11.5 mph - N/A Snow Light Snow
6:55 AM 23.0 °F 11.1 °F 23.0 °F 100% 30.20 in 2.5 mi NNW 12.7 mph - N/A Snow Light Snow
7:15 AM 23.0 °F 12.4 °F 21.2 °F 93% 30.21 in 3.0 mi North 10.4 mph - N/A Snow Light Snow
7:35 AM 23.0 °F 11.1 °F 21.2 °F 93% 30.21 in 7.0 mi North 12.7 mph - N/A Snow Light Snow
7:55 AM 23.0 °F 11.1 °F 21.2 °F 93% 30.22 in 3.0 mi North 12.7 mph - N/A Snow Light Snow
8:15 AM 23.0 °F 11.1 °F 21.2 °F 93% 30.22 in 2.5 mi North 12.7 mph - N/A Snow Light Snow
8:35 AM 23.0 °F 11.7 °F 21.2 °F 93% 30.23 in 2.0 mi North 11.5 mph - N/A Snow Light Snow
9:15 AM 23.0 °F 9.6 °F 21.2 °F 93% 30.24 in 6.0 mi North 16.1 mph - N/A Snow Light Snow
9:35 AM 23.0 °F 10.6 °F 21.2 °F 93% 30.25 in 8.0 mi North 13.8 mph - N/A Snow Light Snow
9:55 AM 23.0 °F 11.1 °F 21.2 °F 93% 30.25 in 7.0 mi North 12.7 mph - N/A Snow Light Snow
10:15 AM 23.0 °F 11.1 °F 21.2 °F 93% 30.25 in 4.0 mi North 12.7 mph - N/A Snow Light Snow
10:35 AM 24.8 °F 13.4 °F 21.2 °F 86% 30.25 in 3.0 mi North 12.7 mph - N/A Snow Light Snow
10:55 AM 24.8 °F 14.0 °F 21.2 °F 86% 30.25 in 5.0 mi North 11.5 mph - N/A Snow Light Snow
11:35 AM 24.8 °F 14.0 °F 21.2 °F 86% 30.26 in 7.0 mi North 11.5 mph - N/A Rain Light Freezing Rain
12:15 PM 24.8 °F 12.9 °F 23.0 °F 93% 30.26 in 8.0 mi North 13.8 mph - N/A Rain Light Freezing Rain
12:35 PM 26.6 °F 15.7 °F 21.2 °F 80% 30.26 in 7.0 mi North 12.7 mph - N/A Rain Light Freezing Rain
12:55 PM 26.6 °F 16.8 °F 21.2 °F 80% 30.26 in 8.0 mi NNE 10.4 mph 19.6 mph N/A Snow Light Snow
1:35 PM 26.6 °F 14.3 °F 19.4 °F 74% 30.25 in 10.0 mi North 16.1 mph - N/A   Overcast
1:55 PM 26.6 °F 14.7 °F 19.4 °F 74% 30.25 in 10.0 mi North 15.0 mph - N/A Rain Light Freezing Rain
2:15 PM 26.6 °F 14.3 °F 17.6 °F 69% 30.26 in - North 16.1 mph - N/A   Overcast
2:35 PM 24.8 °F 11.9 °F 17.6 °F 74% 30.26 in 10.0 mi North 16.1 mph - N/A Rain Light Freezing Rain
2:55 PM 24.8 °F 11.9 °F 17.6 °F 74% 30.26 in 10.0 mi North 16.1 mph - N/A   Overcast
3:15 PM 24.8 °F 12.9 °F 17.6 °F 74% 30.26 in 10.0 mi North 13.8 mph - N/A Rain Light Freezing Rain
3:35 PM 24.8 °F 12.9 °F 17.6 °F 74% 30.27 in 10.0 mi North 13.8 mph - N/A   Overcast
3:55 PM 24.8 °F 13.4 °F 17.6 °F 74% 30.27 in 10.0 mi North 12.7 mph - N/A   Overcast
4:15 PM 24.8 °F 13.4 °F 17.6 °F 74% 30.27 in 10.0 mi North 12.7 mph - N/A   Overcast
4:35 PM 24.8 °F 13.4 °F 17.6 °F 74% 30.27 in 10.0 mi North 12.7 mph - N/A   Overcast
4:55 PM 24.8 °F 12.4 °F 15.8 °F 69% 30.28 in 10.0 mi North 15.0 mph - N/A   Overcast
5:15 PM 24.8 °F 13.4 °F 17.6 °F 74% 30.29 in 10.0 mi North 12.7 mph 19.6 mph N/A   Overcast
5:35 PM 24.8 °F 13.4 °F 17.6 °F 74% 30.30 in 10.0 mi North 12.7 mph 18.4 mph N/A   Overcast
5:55 PM 24.8 °F 11.9 °F 15.8 °F 69% 30.30 in 10.0 mi North 16.1 mph - N/A   Overcast
6:15 PM 24.8 °F 12.4 °F 15.8 °F 69% 30.31 in 10.0 mi NNE 15.0 mph - N/A   Overcast
6:35 PM 23.0 °F 10.1 °F 15.8 °F 74% 30.31 in 10.0 mi NNE 15.0 mph - N/A   Overcast
6:55 PM 23.0 °F 11.1 °F 15.8 °F 74% 30.32 in 10.0 mi North 12.7 mph - N/A   Overcast
7:15 PM 23.0 °F 10.1 °F 15.8 °F 74% 30.32 in 10.0 mi NNE 15.0 mph - N/A   Overcast
7:35 PM 23.0 °F 12.4 °F 15.8 °F 74% 30.32 in 10.0 mi North 10.4 mph 16.1 mph N/A   Overcast
7:55 PM 23.0 °F 13.1 °F 15.8 °F 74% 30.33 in 10.0 mi NNE 9.2 mph - N/A   Overcast
8:15 PM 23.0 °F 12.4 °F 15.8 °F 74% 30.33 in 10.0 mi NNE 10.4 mph - N/A   Overcast
8:35 PM 23.0 °F 12.4 °F 15.8 °F 74% 30.33 in 10.0 mi North 10.4 mph - N/A   Overcast
8:55 PM 23.0 °F 13.1 °F 17.6 °F 80% 30.33 in 10.0 mi North 9.2 mph - N/A   Overcast
9:15 PM 23.0 °F 12.4 °F 15.8 °F 74% 30.33 in 10.0 mi North 10.4 mph - N/A   Overcast
9:35 PM 23.0 °F 11.1 °F 15.8 °F 74% 30.33 in 10.0 mi North 12.7 mph - N/A   Overcast
9:55 PM 23.0 °F 13.1 °F 17.6 °F 80% 30.33 in 10.0 mi North 9.2 mph - N/A   Overcast
10:15 PM 23.0 °F 12.4 °F 17.6 °F 80% 30.33 in 10.0 mi North 10.4 mph - N/A   Overcast
10:35 PM 23.0 °F 11.1 °F 17.6 °F 80% 30.33 in 10.0 mi NNE 12.7 mph - N/A   Overcast
10:55 PM 23.0 °F 12.4 °F 15.8 °F 74% 30.33 in 10.0 mi North 10.4 mph - N/A   Overcast
11:15 PM 23.0 °F 11.7 °F 15.8 °F 74% 30.33 in 10.0 mi NNE 11.5 mph - N/A   Overcast
11:35 PM 23.0 °F 13.9 °F 15.8 °F 74% 30.33 in 10.0 mi North 8.1 mph - N/A   Overcast
11:55 PM 21.2 °F 9.5 °F 15.8 °F 80% 30.32 in - North 11.5 mph - N/A   Overcast